Mackay Observation History
Time Wind Speed Temp Pressure Rel. Hum Rain
03/02:00pm SE 7-11 kts 27.5°c 1009.8 hPa 73% 0.0mm
03/01:30pm SE 7-13 kts 27.4°c 1010.2 hPa 74% 0.0mm
03/01:00pm SSE 7-11 kts 27.6°c 1010.5 hPa 75% 0.0mm
03/12:30pm SE 9-13 kts 27.4°c 1010.7 hPa 72% 0.0mm
03/12:00pm SSE 7-14 kts 27.4°c 1011.3 hPa 74% 0.0mm
03/11:30am SSE 7-12 kts 27.8°c 1011.8 hPa 75% 0.0mm
03/11:00am SSE 6-11 kts 28.1°c 1012.2 hPa 76% 0.0mm
03/10:30am S 7-12 kts 26.7°c 1012.5 hPa 78% 0.0mm
03/10:00am S 6-9 kts 25.9°c 1012.7 hPa 79% 0.0mm
03/09:30am S 7-11 kts 26.2°c 1012.6 hPa 78% 0.0mm
03/09:00am SSW 7-8 kts 25.1°c 1012.6 hPa 80% 1.0mm
03/08:30am SSW 7-11 kts 24.4°c 1012.7 hPa 83% 1.0mm
03/08:00am WSW 5-7 kts 23.5°c 1012.5 hPa 91% 1.0mm
03/07:30am WSW 6-8 kts 21.9°c 1012.2 hPa 95% 1.0mm
03/07:00am WSW 6-9 kts 21.6°c 1011.9 hPa 96% 1.0mm
03/06:30am WSW 6-7 kts 21.2°c 1011.4 hPa 96% 1.0mm
03/06:00am WSW 6-8 kts 21.1°c 1011.2 hPa 96% 1.0mm
03/05:30am WSW 6-8 kts 21.3°c 1010.9 hPa 95% 1.0mm
03/05:00am WSW 5-7 kts 21.5°c 1010.5 hPa 95% 0.8mm
03/04:30am WSW 6-7 kts 21.5°c 1010.6 hPa 94% 0.8mm
03/04:00am WSW 5-7 kts 21.6°c 1010.4 hPa 94% 0.8mm
03/03:30am WSW 6-7 kts 21.6°c 1010.4 hPa 94% 0.8mm
03/03:00am WSW 6-7 kts 21.8°c 1010.7 hPa 93% 0.8mm
03/02:30am WSW 5-7 kts 21.9°c 1010.9 hPa 93% 0.8mm
03/02:00am WSW 5-7 kts 22.0°c 1011.1 hPa 92% 0.8mm
03/01:30am SW 5-7 kts 22.2°c 1011.4 hPa 91% 0.8mm
03/01:00am WSW 5-7 kts 22.4°c 1011.6 hPa 91% 0.8mm
03/12:30am WSW 5-7 kts 22.7°c 1012.0 hPa 90% 0.8mm
03/12:00am WSW 4-7 kts 22.7°c 1012.1 hPa 89% 0.8mm
Time Wind Speed Temp Pressure Rel. Hum Rain
02/11:30pm SW 5-6 kts 23.1°c 1012.4 hPa 86% 0.8mm
02/11:00pm SE 5-7 kts 24.8°c 1012.4 hPa 80% 0.8mm
02/10:30pm SE 5-8 kts 24.7°c 1012.6 hPa 80% 0.8mm
02/10:00pm SE 5-9 kts 25.0°c 1013.0 hPa 80% 0.8mm
02/09:30pm SE 5-9 kts 24.9°c 1013.1 hPa 79% 0.8mm
02/09:00pm SE 6-11 kts 24.9°c 1012.8 hPa 79% 0.8mm
02/08:30pm ESE 4-10 kts 24.6°c 1012.9 hPa 84% 0.8mm
02/08:00pm ENE 8-16 kts 24.4°c 1012.7 hPa 83% 0.8mm
02/07:30pm ESE 5-8 kts 25.7°c 1012.5 hPa 76% 0.0mm
02/07:00pm SE 6-9 kts 25.7°c 1012.4 hPa 75% 0.0mm
02/06:30pm SSE 5-9 kts 25.2°c 1012.2 hPa 79% 0.0mm
02/06:00pm SSE 6-9 kts 25.5°c 1012.1 hPa 75% 0.0mm
02/05:30pm SE 7-11 kts 26.1°c 1011.9 hPa 71% 0.0mm
02/05:00pm ESE 6-9 kts 26.4°c 1011.6 hPa 70% 0.0mm
02/04:30pm SE 6-10 kts 26.9°c 1011.6 hPa 72% 0.0mm
02/04:00pm SE 9-13 kts 27.1°c 1011.3 hPa 70% 0.0mm
02/03:30pm SSE 9-14 kts 27.5°c 1011.2 hPa 73% 0.0mm
02/03:00pm SSE 8-14 kts 27.7°c 1011.3 hPa 75% 0.0mm
02/02:30pm SSE 9-14 kts 27.8°c 1011.6 hPa 75% 0.0mm
02/02:00pm SSE 9-15 kts 28.1°c 1011.9 hPa 74% 0.0mm
02/01:30pm SSE 9-15 kts 27.5°c 1012.1 hPa 72% 0.0mm
02/01:00pm SSE 9-16 kts 27.5°c 1012.5 hPa 73% 0.0mm
02/12:30pm SSE 9-15 kts 27.7°c 1013.1 hPa 74% 0.0mm
02/12:00pm SSE 10-14 kts 27.3°c 1013.3 hPa 74% 0.0mm
02/11:30am SSE 8-12 kts 27.7°c 1013.7 hPa 74% 0.0mm
02/11:00am SSE 9-14 kts 27.5°c 1014.1 hPa 77% 0.0mm
02/10:30am SSE 10-14 kts 26.9°c 1014.3 hPa 75% 0.0mm
02/10:00am S 9-14 kts 27.0°c 1014.6 hPa 75% 0.0mm
02/09:30am SSW 9-14 kts 27.0°c 1014.8 hPa 78% 0.0mm
02/09:00am SE 6-12 kts 27.2°c 1014.5 hPa 68% 3.0mm
02/08:30am SSW 7-9 kts 25.1°c 1014.5 hPa 83% 3.0mm
02/08:00am SSW 5-7 kts 24.3°c 1014.1 hPa 86% 3.0mm
02/07:30am SW 5-7 kts 22.6°c 1013.8 hPa 91% 3.0mm
02/07:00am WSW 6-9 kts 22.2°c 1013.5 hPa 95% 3.0mm
02/06:30am SW 6-7 kts 21.7°c 1013.0 hPa 96% 3.0mm
02/06:00am WSW 6-8 kts 21.5°c 1012.9 hPa 95% 3.0mm
02/05:30am SSW 6-7 kts 21.4°c 1012.6 hPa 95% 2.8mm
02/05:00am WSW 7-11 kts 21.1°c 1012.2 hPa 92% 0.0mm
02/04:30am WSW 6-9 kts 21.7°c 1012.1 hPa 90% 0.0mm
02/04:00am WSW 7-9 kts 22.1°c 1011.8 hPa 86% 0.0mm
02/03:30am ESE 5-7 kts 24.9°c 1011.8 hPa 72% 0.0mm
02/03:00am E 6-11 kts 25.3°c 1012.0 hPa 73% 0.0mm
02/02:30am ESE 5-9 kts 25.4°c 1012.2 hPa 72% 0.0mm
02/02:00am E 8-11 kts 25.5°c 1012.4 hPa 71% 0.0mm
02/01:30am E 9-15 kts 25.5°c 1012.9 hPa 72% 0.0mm
02/01:00am E 7-11 kts 25.7°c 1013.3 hPa 71% 0.0mm
02/12:30am E 9-14 kts 25.8°c 1013.6 hPa 67% 0.0mm
02/12:00am ESE 6-12 kts 25.7°c 1013.9 hPa 71% 0.0mm
Time Wind Speed Temp Pressure Rel. Hum Rain
01/11:30pm ESE 5-9 kts 25.5°c 1014.5 hPa 73% 0.0mm
01/11:00pm E 7-11 kts 25.7°c 1014.9 hPa 70% 0.0mm
01/10:30pm ESE 6-10 kts 25.7°c 1015.2 hPa 72% 0.0mm
01/10:00pm ESE 7-11 kts 25.6°c 1015.5 hPa 72% 0.0mm
01/09:30pm SE 6-10 kts 25.3°c 1015.6 hPa 75% 0.0mm
01/09:00pm SE 7-12 kts 25.5°c 1015.3 hPa 71% 0.0mm
01/08:30pm SE 7-11 kts 25.8°c 1014.8 hPa 71% 0.0mm
01/08:00pm SE 7-12 kts 25.7°c 1014.4 hPa 71% 0.0mm
01/07:30pm SE 7-12 kts 25.7°c 1013.9 hPa 74% 0.0mm
01/07:00pm ESE 7-13 kts 25.8°c 1013.5 hPa 73% 0.0mm
01/06:30pm ESE 7-13 kts 25.7°c 1013.3 hPa 72% 0.0mm
01/06:00pm SE 8-13 kts 25.8°c 1013.1 hPa 72% 0.0mm
01/05:30pm SSE 7-13 kts 26.1°c 1013.2 hPa 69% 0.0mm
01/05:00pm SE 8-13 kts 26.6°c 1012.9 hPa 70% 0.0mm
01/04:30pm SSE 8-13 kts 27.0°c 1012.9 hPa 68% 0.0mm
01/04:00pm SSE 8-13 kts 27.5°c 1013.0 hPa 67% 0.0mm
01/03:30pm SSE 8-13 kts 27.5°c 1013.0 hPa 66% 0.0mm
01/03:00pm SSE 9-13 kts 28.0°c 1013.0 hPa 64% 0.0mm
01/02:30pm SSE 9-14 kts 27.9°c 1013.1 hPa 64% 0.0mm
01/02:00pm SE 8-13 kts 27.6°c 1013.3 hPa 64% 0.0mm
01/01:30pm SE 8-13 kts 27.9°c 1013.6 hPa 64% 0.0mm
01/01:00pm SSE 7-13 kts 27.9°c 1013.9 hPa 64% 0.0mm
01/12:30pm SE 8-13 kts 28.3°c 1014.1 hPa 65% 0.0mm
01/12:00pm SE 9-13 kts 28.0°c 1014.4 hPa 65% 0.0mm
01/11:30am SE 8-14 kts 28.3°c 1014.7 hPa 68% 0.0mm
01/11:00am SE 7-13 kts 28.0°c 1015.1 hPa 64% 0.0mm
01/10:30am SE 8-12 kts 28.1°c 1015.3 hPa 68% 0.0mm
01/10:00am ESE 7-11 kts 27.8°c 1015.2 hPa 64% 0.0mm
01/09:30am SE 7-11 kts 27.5°c 1015.1 hPa 64% 0.0mm
01/09:00am ESE 7-11 kts 27.3°c 1014.9 hPa 68% 0.0mm
01/08:30am ESE 7-11 kts 27.0°c 1014.7 hPa 69% 0.0mm
01/08:00am ESE 5-8 kts 27.0°c 1014.6 hPa 71% 0.0mm
01/07:30am ESE 5-8 kts 26.2°c 1014.3 hPa 69% 0.0mm
01/07:00am ESE 5-9 kts 25.7°c 1014.1 hPa 69% 0.0mm
01/06:30am E 7-11 kts 25.2°c 1013.7 hPa 70% 0.0mm
01/06:00am ESE 6-9 kts 24.9°c 1013.4 hPa 73% 0.0mm
01/05:30am SSE 5-9 kts 22.3°c 1013.4 hPa 87% 0.0mm
01/05:00am SW 7-9 kts 21.9°c 1013.2 hPa 94% 0.0mm
01/04:30am SW 5-7 kts 21.8°c 1012.9 hPa 95% 0.0mm
01/04:00am WSW 5-7 kts 21.7°c 1012.7 hPa 94% 0.0mm
01/03:30am WSW 5-7 kts 22.0°c 1012.5 hPa 93% 0.0mm
01/03:00am WSW 5-7 kts 22.1°c 1012.6 hPa 92% 0.0mm
01/02:30am WSW 5-9 kts 22.3°c 1012.8 hPa 90% 0.0mm
01/02:00am SSW 4-7 kts 22.5°c 1012.9 hPa 88% 0.0mm
01/01:30am ESE 4-6 kts 24.9°c 1013.1 hPa 75% 0.0mm
01/01:00am E 5-9 kts 25.3°c 1013.4 hPa 76% 0.0mm
01/12:30am E 7-10 kts 25.1°c 1013.8 hPa 75% 0.0mm
01/12:00am ESE 5-7 kts 25.5°c 1014.2 hPa 76% 0.0mm